Location: Newark
(45.8667°N, 9.7333°E)
Time: 00:30:04
(UTC+00:00)

Vanguard 2 Rocket - Pass Details

Date: 29 January 2020
Orbit: 553 x 3327 km, 32.9° (Epoch: 24 February)

Event Time Altitude Azimuth Distance (km) Brightness Sun altitude
Rises 05:51:34 0° 246° (WSW) 2,878 - -9.9°
Exits shadow 05:52:24 - 241° (WSW) 2,606 8.8 -9.8°
Reaches altitude 10° 05:54:05 10° 228° (SW) 2,142 8.5 -9.5°
Maximum altitude 05:57:40 20° 180° (S) 1,838 8.7 -8.9°
Drops below altitude 10° 06:02:29 10° 135° (SE) 2,980 10.7 -8.1°
Sets 06:06:48 0° 121° (ESE) 4,452 12.4 -7.4°
